Regional Weather Roundup
Issued by NWS

Home | Current Version | Previous Version | Graphics & Text | Print | Product List | Glossary On
Versions: 1 2 3 4 5 6 7 8 9 10 11 12 13 14 15 16 17 18 19 20 21 22 23 24 25 26 27 28 29 30 31 32 33 34 35 36 37 38 39 40 41 42 43 44 45 46 47 48 49
000
ASUS45 KSLC 220110
RWRUT

UTAH REGIONAL WEATHER ROUNDUP
NATIONAL WEATHER SERVICE SALT LAKE CITY UT
700 PM MDT SUN SEP 21 2014

UTZ001>011-023>025-220200-

NORTHERN UTAH

CITY           SKY/WX    TMP DP  RH WIND       PRES   REMARKS
HILL AFB       CLOUDY    62  55  76 E10       30.15F
LOGAN          MOCLDY    60  58  92 NE8       30.16R
OGDEN          CLOUDY    65  58  78 CALM      30.13F
PROVO AIRPORT  PTCLDY    64  55  72 CALM      30.17R
SALT LAKE CITY MOCLDY    68  56  65 S9        30.12S
VERNAL         CLOUDY    59  55  87 SE6       30.23F
WENDOVER       MOCLDY    66  54  63 N7        30.13R
HEBER CITY     CLOUDY    61  54  77 CALM      30.20S
WEST JORDAN    CLEAR     66  55  68 SE5       30.15R

$$

UTZ012>022-026-027-220200-

SOUTHERN UTAH

CITY           SKY/WX    TMP DP  RH WIND       PRES   REMARKS
BRYCE CANYON   CLEAR     59  49  69 CALM      30.30S
CEDAR CITY     PTCLDY    67  55  65 N5        30.14S
MILFORD        PTCLDY    67  57  70 N10       30.12F
MOAB/CYNLANDS  CLEAR     70  59  68 CALM      30.13F
PRICE          PTCLDY    63  56  78 W6        30.22S
ST GEORGE      CLOUDY    81  59  47 SW12      30.00R THUNDER
KANAB            N/A     72  57  60 NE12      30.14S

$$

REGIONAL REPORTS     COLORADO/ARIZONA

CITY           SKY/WX    TMP DP  RH WIND       PRES   REMARKS
CRAIG, CO      CLOUDY    63  51  65 VRB3      30.25S
GRAND JUNCTION RAIN      60  58  92 W8        30.20R FOG
RIFLE          MOCLDY    67  54  63 W18       30.19R
MONTROSE       CLOUDY    68  55  63 NW12      30.22R
CORTEZ         MOCLDY    73  49  42 S3        30.19S
PAGE, AZ       CLEAR     80  54  40 N3        30.07S
GRAND CANYON   CLEAR     71  42  35 SW13      30.24R
KINGMAN        CLEAR     84  33  16 SW14      30.01S
FLAGSTAFF      CLEAR     67  47  48 SW8       30.27F

$$

REGIONAL REPORTS    NEVADA/IDAHO/WYOMING

CITY           SKY/WX    TMP DP  RH WIND       PRES   REMARKS
LAS VEGAS, NV  PTCLDY    92  44  19 S8        29.85S
ELY            RAIN      54  48  80 SW10      30.26R
ELKO           CLOUDY    64  43  46 S17G28    30.12R
POCATELLO, ID  LGT RAIN  61  57  87 SW14      30.15R
BURLEY         LGT RAIN  61  58  90 NE7       30.09F
EVANSTON, WY   CLOUDY    52  49  89 E8        30.28F
ROCK SPRINGS   CLOUDY    62  45  53 SW26G32   30.30R

$$



USA.gov is the U.S. government's official web portal to all federal, state and local government web resources and services.